User: anonymous   Login
Location: Unspecified
(0.0000°N, 0.0000°E)
Time: 12:22:15
(UTC+00:00)
Language:

NOSS 2-1 (D) - Orbit

View from above orbital plane
View from above orbital plane
View from above satellite
View from above satellite

Ground track
Ground track

The orbit data is extracted from the following two-line orbital elements,

1 20692U 90050D   17102.79998273 0.00000280  00000-0  74979-4 0    01
2 20692  63.3450   2.3853 0782000  30.6831 329.3169 13.41679381    07
Epoch (UTC): 12 April 2017 19:11:58
Eccentricity: 0.0782000
inclination: 63.3450°
perigee height: 518 km
apogee height: 1688 km
right ascension of ascending node: 2.3853°
argument of perigee: 30.6831°
revolutions per day: 13.41679381
mean anomaly at epoch: 329.3169°
orbit number at epoch: 0

The dashed part of the orbit path shows where the satellite is in the earth's shadow,  

DLR